Temperature
16 17 17 17 14 11 13 14 15 16 16 16 16 16 14 14 14 14 13 13 13 14 14 14 14 14 14 14 14 14 14 14 14 14 14 14 14 14 14 14 15 15 15 14 14 15 15 14 14
16 17 17 16 12 12 13 14 15 15 16 17 16 15 14 13 13 13 13 13 13 13 13 13 13 13 13 14 14 14 14 14 14 14 14 14 14 14 14 14 14 14 14 14 14 14 14 14 14
16 17 17 11 11 12 14 15 14 15 17 17 15 15 14 13 13 13 13 13 13 13 13 13 13 13 13 13 13 13 13 14 14 14 14 14 14 14 14 14 14 14 14 14 14 14 14 14 14
16 17 15 11 13 13 14 14 14 15 16 16 15 13 13 13 13 13 13 13 13 13 13 13 13 13 13 13 13 13 13 13 13 13 13 14 13 13 13 14 14 14 14 14 14 14 14 14 14
16 16 12 11 13 13 13 14 15 15 15 15 15 13 12 13 13 13 13 13 13 13 13 13 13 13 13 13 13 13 13 13 13 13 13 13 13 13 13 13 14 14 14 14 14 14 14 14 13
16 12 11 11 13 14 14 15 15 14 14 15 14 12 12 12 13 13 13 13 13 12 12 12 12 12 13 13 13 13 13 13 13 13 13 13 13 13 13 13 13 13 14 13 13 13 13 13 13
14 10 11 12 12 13 14 15 15 13 14 14 15 12 12 12 12 12 12 12 12 12 12 12 12 12 12 12 12 13 13 13 13 13 13 13 13 13 13 13 13 13 13 13 13 13 13 13 13
15 10 12 12 12 13 14 15 15 15 14 14 14 12 12 12 12 12 12 12 12 12 12 12 12 12 12 12 12 12 12 12 13 13 13 12 12 12 13 13 13 13 13 13 13 13 13 13 13
15 10 11 12 13 13 14 14 14 14 14 14 14 14 13 13 12 12 12 12 12 12 12 12 12 12 12 12 12 12 12 12 12 12 12 12 12 12 12 12 12 12 12 12 13 13 12 12 12
13 10 12 13 13 13 13 14 14 14 13 13 13 13 13 12 12 12 12 12 12 12 12 12 12 12 12 11 11 12 12 12 12 12 12 12 12 12 12 12 12 12 12 12 12 12 12 12 12
12 11 12 13 14 14 13 13 14 13 11 12 13 13 12 12 12 12 12 12 12 11 11 11 11 11 11 11 11 11 11 11 11 11 11 11 11 11 12 12 12 12 12 12 12 12 12 12 12
11 12 13 13 14 14 13 13 13 13 13 14 14 13 12 12 12 12 12 12 11 11 11 11 11 11 11 11 11 11 11 11 11 11 11 11 11 11 11 11 11 11 11 11 11 11 11 11 11
11 12 13 13 13 13 13 12 12 12 13 13 13 12 12 12 12 12 12 11 11 11 11 11 11 11 11 11 11 11 11 10 11 11 11 11 11 11 11 11 11 11 11 11 11 11 11 11 11
11 11 12 12 12 12 12 11 11 12 13 13 12 12 12 12 12 12 11 11 11 11 11 11 11 11 11 10 10 10 10 10 10 10 10 10 10 10 10 10 10 10 10 11 11 10 11 11 11
12 10 10 11 12 12 11 10 10 13 12 12 12 12 12 12 12 11 11 11 11 11 11 11 11 10 10 10 10 10 10 10 10 10 10 10 10 10 10 10 10 10 10 10 10 10 10 10 10
11 10 9 10 11 11 11 10 11 13 12 11 12 12 12 12 11 11 11 11 11 11 11 10 10 10 10 10 10 10 10 10 10 10 9 9 9 9 10 10 10 10 10 10 9 10 10 10 10
9 9 9 10 11 10 9 9 10 12 12 11 11 12 12 11 11 11 11 11 11 11 10 10 10 10 10 10 10 10 9 9 9 9 9 9 9 9 9 9 9 9 9 9 9 9 9 9 9
9 8 9 10 10 9 9 9 9 11 11 11 11 11 11 11 12 11 11 11 11 10 10 10 10 10 10 9 9 9 9 9 9 9 9 9 9 9 9 9 9 9 9 9 9 9 9 9 9
10 9 10 10 10 9 8 9 9 10 10 10 10 10 11 11 11 11 11 11 10 10 10 10 10 9 9 9 9 9 9 8 8 8 8 8 8 8 8 8 8 8 8 8 8 8 8 8 8
10 9 9 9 10 9 8 9 9 9 9 9 10 10 10 11 11 10 10 10 10 10 10 9 9 9 9 9 9 8 8 8 8 8 8 8 8 8 8 8 8 8 8 8 8 8 8 8 8
9 9 9 9 9 9 9 8 9 9 9 10 10 10 11 10 10 10 10 10 10 9 9 9 9 9 9 9 8 8 8 8 8 8 8 8 8 8 8 7 8 8 8 8 8 7 8 8 8
9 9 9 9 8 6 8 7 8 8 8 8 9 9 10 10 10 10 9 9 9 9 9 9 9 9 8 8 8 8 8 8 8 8 8 8 7 7 7 7 7 7 7 7 7 7 7 7 7
8 9 8 8 7 6 6 7 7 7 8 8 8 9 10 10 10 9 9 9 9 9 9 9 8 8 8 8 8 8 8 8 7 7 7 7 7 7 7 7 7 7 7 7 7 7 7 7 7
8 8 7 6 6 6 6 6 7 7 8 8 8 9 9 9 9 9 9 9 9 8 8 8 8 8 8 8 7 7 7 7 7 7 7 7 7 7 7 7 7 7 7 7 6 7 7 7 7
7 6 6 6 6 6 7 6 6 8 8 8 8 9 9 9 9 9 8 8 8 8 8 8 8 8 8 7 7 7 7 7 7 7 7 7 6 6 6 6 6 6 6 6 6 6 6 6 6
6 7 6 6 6 6 6 6 7 8 8 8 9 9 9 8 8 8 8 8 8 8 8 7 7 7 7 7 7 7 7 6 6 6 6 6 6 6 6 6 6 6 6 6 6 6 6 6 6
6 6 6 6 6 6 6 6 7 7 7 7 7 7 8 8 8 8 8 8 8 7 7 7 7 7 7 7 7 6 6 6 6 6 6 6 6 6 6 6 6 6 6 5 5 5 5 5 5
6 6 5 5 6 6 6 6 6 6 6 6 6 6 7 7 7 7 7 7 7 7 7 7 7 7 6 6 6 6 6 6 6 6 6 6 6 5 5 5 5 5 5 5 5 5 5 5 5
5 5 5 4 4 6 6 6 6 6 6 5 5 6 6 7 7 7 7 7 7 7 7 6 6 6 6 6 6 6 6 6 6 6 5 5 5 5 5 5 5 5 5 5 5 5 5 4 4
5 5 4 4 4 4 4 5 6 6 5 5 5 6 6 7 7 6 6 6 6 6 6 6 6 6 6 6 5 5 5 5 5 5 5 5 5 5 5 5 5 5 4 4 4 4 4 4 4
Wind_Speed
10 7 3 4 6 5 1 3 2 1 1 1 3 7 8 5 3 5 2 3 6 5 6 6 7 7 7 7 7 6 6 6 6 5 5 6 6 6 6 6 6 6 6 7 8 9 9 9 10
6 3 5 5 5 2 3 3 3 2 3 3 4 6 6 5 3 6 2 3 7 7 6 6 7 7 7 7 6 6 5 5 5 5 5 5 5 5 5 5 5 5 6 6 7 8 8 9 9
4 3 5 5 4 6 5 4 5 2 1 3 4 5 5 4 4 4 3 5 7 7 6 6 7 7 7 7 7 5 5 5 4 5 5 5 5 5 5 4 5 6 6 6 7 7 8 8 8
4 5 5 5 2 4 5 5 4 3 2 4 5 5 4 2 3 4 5 7 8 5 6 6 6 6 6 6 6 5 4 4 4 4 4 4 4 4 4 4 5 6 7 7 7 7 7 8 7
4 5 5 2 2 2 3 4 4 4 2 2 5 5 3 3 4 7 7 8 7 4 5 5 6 5 5 5 5 5 4 4 3 3 3 4 4 4 4 4 5 6 6 7 7 7 7 7 7
4 5 4 3 3 2 2 3 4 4 3 2 5 6 3 0 5 6 7 6 6 5 5 5 5 5 5 4 4 4 4 4 3 3 3 3 4 4 4 4 5 5 6 7 6 6 6 7 7
5 5 4 5 4 3 3 2 5 5 4 3 5 6 3 2 3 6 7 6 6 6 5 4 4 4 4 4 4 3 3 3 3 3 3 3 3 4 4 4 5 6 6 6 6 6 5 6 6
5 5 2 3 4 4 3 2 3 5 3 1 5 7 5 6 5 6 6 6 5 4 4 3 3 4 3 2 3 3 3 3 3 3 3 2 2 3 4 4 5 6 6 6 5 6 6 5 5
4 4 3 5 6 4 3 3 1 2 4 2 2 4 6 8 6 6 5 3 3 2 2 2 2 3 3 2 2 3 3 3 3 3 3 3 2 3 3 4 5 5 5 5 5 5 6 5 4
4 4 5 3 4 5 3 3 3 3 2 1 1 2 6 7 7 7 5 4 2 2 1 1 2 2 2 2 2 2 2 3 3 3 4 3 2 2 2 3 4 4 4 5 5 5 5 4 3
4 5 3 1 2 4 3 2 2 6 4 6 7 7 7 7 7 6 5 5 4 3 2 1 1 1 2 2 2 2 2 2 2 3 3 3 3 2 2 2 2 3 4 4 4 4 4 4 3
2 2 2 1 1 3 3 3 2 5 7 6 9 10 9 8 8 8 7 6 4 3 3 2 1 1 1 2 1 2 2 2 1 1 2 3 2 2 1 2 2 3 3 3 4 3 3 4 3
1 1 1 0 2 2 2 3 3 5 5 4 6 9 10 10 8 7 7 6 5 4 3 3 2 2 2 2 1 2 2 1 1 1 1 2 2 1 1 1 2 3 3 4 3 3 3 3 3
1 0 1 1 1 2 3 4 3 8 5 6 7 9 10 10 10 7 6 5 5 5 4 3 3 3 2 2 2 2 2 2 1 1 2 2 2 2 1 1 2 2 3 4 4 4 3 2 3
2 2 4 3 3 3 2 5 7 8 6 8 9 9 10 10 9 9 8 7 7 6 5 4 4 3 3 3 2 2 2 2 2 2 2 3 3 3 2 2 1 2 3 4 4 3 4 2 2
2 2 3 5 3 3 5 9 9 7 9 9 9 9 9 9 9 9 8 7 6 6 5 4 3 3 3 3 2 2 2 2 2 2 3 3 4 4 4 2 2 2 3 3 3 3 2 2 2
1 2 4 5 4 3 5 9 7 4 8 10 9 9 9 9 8 8 8 8 7 6 6 4 3 3 3 3 2 2 2 2 1 2 2 3 3 4 4 3 2 3 3 2 3 2 3 3 3
4 4 5 6 4 4 6 11 10 6 7 9 8 8 9 9 9 8 7 7 7 6 5 4 3 3 3 2 1 1 1 1 1 1 2 2 3 3 3 2 3 4 3 2 3 3 2 2 3
4 4 6 7 4 5 10 14 13 9 8 9 8 8 8 9 7 6 6 6 5 4 4 4 4 3 3 2 2 2 2 1 1 1 1 2 2 3 3 2 2 3 3 3 4 3 3 2 3
4 4 5 5 3 4 8 13 11 9 8 8 9 9 9 6 4 5 5 5 5 5 4 4 4 4 4 3 3 2 2 1 1 1 1 2 2 2 3 3 2 2 3 3 4 4 2 1 2
5 6 5 5 5 4 5 9 6 5 5 6 7 7 8 9 8 7 6 6 5 5 4 4 3 4 4 3 2 2 1 1 1 0 1 1 2 2 2 3 3 3 3 4 5 5 4 3 1
6 4 4 3 2 5 1 6 8 5 5 6 7 6 7 7 7 7 6 6 5 5 4 4 3 3 3 4 4 4 3 2 2 2 1 1 1 2 3 3 3 3 3 4 5 4 4 5 3
5 3 2 3 3 4 3 5 8 4 5 8 7 7 6 6 7 7 7 7 6 5 4 4 3 3 3 4 5 5 3 2 1 1 1 1 1 1 2 2 3 3 2 3 4 4 4 4 4
1 2 3 3 2 4 6 7 7 5 6 5 5 6 6 6 6 5 4 4 3 3 3 3 3 3 3 3 4 6 5 3 2 2 2 1 1 1 1 2 2 2 3 3 4 4 4 4 4
2 3 2 3 2 7 4 5 8 8 6 5 5 6 6 6 6 5 4 4 4 4 3 3 3 3 2 3 3 5 6 5 5 4 3 3 2 2 2 2 2 2 3 3 4 4 4 4 4
3 5 5 5 5 5 3 6 6 6 3 0 2 2 3 4 5 5 5 5 5 5 4 4 4 3 3 3 3 3 4 4 4 4 4 4 3 3 3 3 3 3 3 3 3 3 3 3 4
2 4 4 3 3 4 6 5 6 5 5 4 3 2 1 2 3 4 4 4 4 5 5 5 5 4 3 3 3 3 3 4 4 4 4 3 3 3 3 3 3 3 3 4 4 3 3 4 4
1 1 2 2 3 5 5 4 3 4 4 4 2 1 2 1 2 2 3 3 4 4 4 4 4 4 4 3 3 3 3 3 4 4 4 4 4 3 3 3 3 3 3 3 4 3 3 4 4
1 1 2 2 3 4 4 4 2 2 2 2 2 2 2 2 2 2 2 2 2 2 3 3 3 3 3 3 2 2 3 3 3 4 4 4 4 4 4 4 4 4 3 3 4 4 4 5 4
4 3 3 2 5 3 3 5 2 2 2 1 2 2 2 2 1 1 1 0 0 1 2 3 3 3 3 3 3 3 3 3 3 4 4 4 4 4 4 4 4 4 3 3 4 5 5 5 5
Wind_Direction
336 345 72 59 59 58 195 244 198 142 105 101 87 99 107 101 121 150 172 128 121 118 119 114 104 101 98 96 96 93 97 99 105 109 115 117 116 109 106 107 107 108 107 111 108 108 107 107 110
337 18 58 62 93 120 251 239 175 202 177 139 80 87 85 80 85 111 121 128 118 116 115 114 105 101 96 93 94 95 102 100 105 109 111 118 118 120 119 117 117 116 116 116 110 110 111 110 111
340 59 80 77 121 175 201 208 179 165 107 111 79 63 93 114 118 134 160 130 107 102 109 112 106 100 93 88 88 89 106 109 109 109 110 115 118 124 124 122 123 123 123 118 116 116 116 118 115
57 51 59 81 163 219 196 200 178 137 62 65 103 79 73 63 140 146 132 114 108 96 101 112 107 103 94 86 82 84 95 105 111 114 114 115 116 124 121 122 125 128 125 118 118 123 123 124 124
61 78 74 70 223 242 210 202 167 135 132 91 107 109 94 4 106 119 120 118 120 107 99 107 104 103 100 92 82 82 93 97 105 112 118 120 117 128 134 128 128 127 125 122 122 127 130 133 129
58 72 102 184 213 228 234 200 143 132 138 114 111 120 141 340 117 120 119 114 114 108 89 92 94 90 90 93 90 80 84 81 86 98 108 114 120 129 135 141 142 133 127 125 128 129 133 138 133
105 105 156 179 187 219 219 170 143 142 139 170 139 128 159 214 155 128 111 104 101 100 90 78 85 88 88 88 91 82 76 74 70 83 89 96 112 126 136 139 146 143 136 131 134 134 133 141 138
122 111 147 183 186 220 204 140 137 137 158 157 127 146 184 203 167 117 96 92 99 94 85 77 77 77 74 83 95 89 82 82 68 61 72 88 104 119 133 133 140 143 144 140 141 140 137 138 136
94 87 187 202 192 203 187 131 113 121 113 88 111 169 181 154 139 115 98 80 98 101 99 82 70 64 68 82 93 88 81 81 79 67 62 75 101 121 138 137 138 142 148 147 148 145 143 135 138
91 154 211 216 190 175 169 153 163 116 112 130 81 82 125 138 142 140 142 152 154 165 169 123 92 68 70 77 70 71 72 82 91 86 74 70 86 120 132 134 148 151 152 152 149 150 147 138 132
137 178 207 264 183 150 146 161 170 153 207 205 185 172 154 149 151 157 164 172 184 190 190 186 149 112 98 78 85 77 73 82 85 87 80 80 78 80 100 113 131 145 147 138 143 144 136 126 125
151 237 205 246 146 141 163 172 202 202 218 199 177 167 165 167 173 176 179 184 185 183 198 201 177 153 141 122 116 109 88 79 76 84 93 94 85 66 78 108 131 134 143 131 123 124 124 123 128
192 253 331 62 81 149 155 206 220 243 228 185 162 164 177 183 188 191 186 183 179 183 190 200 192 190 174 140 142 127 122 121 135 123 124 122 111 123 123 143 146 147 146 140 128 124 118 116 114
182 151 322 295 236 211 196 252 233 248 208 186 180 184 192 194 194 192 189 190 189 188 193 199 198 194 169 162 164 160 149 160 159 157 163 162 153 164 148 146 152 158 158 156 148 144 141 138 120
70 25 331 273 222 214 156 274 235 235 190 198 203 201 201 203 197 195 196 193 192 190 188 193 195 181 173 173 177 166 169 168 174 191 171 172 171 167 157 165 165 170 161 149 137 133 128 131 115
46 43 287 270 206 183 159 256 255 223 191 210 215 211 207 210 205 201 196 192 187 181 180 190 187 175 178 175 172 172 176 169 187 193 176 176 176 169 154 155 174 167 145 138 146 151 139 131 120
16 248 251 275 215 175 195 250 270 231 196 215 220 218 210 212 213 207 197 188 181 180 179 181 184 183 183 177 171 171 172 170 179 173 166 176 177 170 156 158 165 150 130 138 162 156 148 141 128
226 236 251 249 236 199 234 256 270 255 223 226 225 222 214 213 216 205 193 183 176 174 174 175 180 185 179 168 152 142 139 165 162 164 170 175 183 178 161 153 155 148 138 144 139 140 129 141 139
219 232 257 259 243 215 244 261 267 252 239 238 235 226 219 220 215 191 176 166 159 162 166 172 178 185 172 164 171 180 199 205 194 176 171 171 182 173 157 155 161 159 158 155 139 135 130 120 120
248 256 268 289 276 241 266 272 267 246 230 226 223 222 219 213 194 183 172 166 164 165 170 178 188 185 186 180 179 181 183 203 201 179 186 195 179 176 171 160 180 166 148 144 146 142 142 135 134
253 235 244 264 312 302 299 296 274 263 237 238 228 220 209 196 188 182 176 176 171 177 184 187 195 194 189 172 149 125 93 59 50 195 218 260 187 175 173 172 174 171 166 167 164 160 159 169 180
258 247 235 248 287 278 250 287 286 271 272 247 236 219 208 195 185 182 178 178 184 194 188 187 193 191 190 170 166 170 175 195 221 217 216 249 206 180 175 175 170 179 180 175 178 172 163 163 180
235 269 255 253 228 281 243 232 282 294 271 256 238 224 209 190 180 181 183 188 191 189 183 185 180 182 184 180 177 177 185 199 195 188 193 209 230 198 185 181 178 183 184 184 184 170 167 171 175
210 9 2 31 96 260 228 200 274 249 242 260 237 216 201 185 179 178 180 176 182 182 177 177 176 187 183 180 182 181 186 187 178 189 196 207 222 230 217 196 193 197 192 188 187 176 174 176 172
69 80 5 329 282 248 221 205 252 259 251 228 217 210 196 177 169 168 172 178 186 185 187 188 185 197 195 179 185 191 193 193 195 199 199 201 215 230 229 225 208 209 205 194 180 170 178 178 176
221 169 184 221 236 274 259 226 255 290 306 210 168 161 161 172 178 182 189 189 193 196 194 194 198 204 196 187 196 200 198 199 207 208 202 204 214 223 216 214 213 210 204 198 182 171 179 174 175
196 221 200 180 248 261 262 270 304 351 15 35 65 84 162 187 195 200 200 194 195 196 198 198 200 203 197 195 196 200 206 206 211 214 207 206 208 210 206 208 208 210 200 195 183 183 182 173 181
213 196 112 172 220 249 271 266 278 316 324 351 5 305 286 265 230 220 213 212 203 198 200 196 196 203 200 196 196 201 209 210 206 203 206 206 205 202 198 208 207 204 195 190 180 184 185 179 192
271 247 206 207 224 216 255 264 235 251 291 275 268 268 264 271 249 241 240 235 213 195 196 199 200 196 196 201 206 204 213 215 206 206 209 204 200 197 196 203 202 199 196 194 188 192 184 187 195
209 203 155 205 253 235 240 264 301 322 329 320 304 318 309 302 287 270 258 274 238 231 230 220 210 203 206 206 208 214 218 215 208 212 213 200 196 199 199 197 196 197 198 199 193 193 192 189 194
Height
1511 1512 1514 1516 1520 1533 1535 1528 1522 1520 1520 1519 1518 1519 1521 1525 1529 1535 1533 1531 1532 1533 1534 1534 1535 1535 1535 1535 1535 1536 1536 1536 1536 1537 1537 1537 1538 1538 1539 1539 1539 1540 1540 1541 1542 1542 1542 1543 1543
1511 1512 1515 1516 1528 1540 1535 1525 1522 1519 1518 1519 1519 1520 1522 1525 1527 1529 1530 1531 1532 1533 1533 1534 1534 1534 1535 1535 1535 1535 1535 1535 1536 1536 1536 1537 1538 1538 1538 1539 1539 1540 1540 1541 1541 1542 1543 1543 1543
1511 1512 1515 1519 1531 1535 1528 1521 1519 1518 1518 1518 1520 1521 1523 1526 1527 1528 1529 1530 1531 1532 1533 1533 1533 1534 1534 1534 1534 1534 1534 1535 1535 1535 1536 1536 1537 1537 1538 1538 1538 1539 1540 1540 1541 1542 1542 1543 1544
1512 1514 1516 1525 1528 1525 1521 1519 1517 1517 1518 1518 1519 1523 1525 1527 1527 1528 1529 1530 1531 1531 1532 1532 1533 1533 1533 1533 1533 1533 1534 1534 1534 1535 1535 1535 1536 1536 1537 1537 1538 1539 1539 1540 1540 1541 1542 1543 1543
1511 1513 1522 1529 1526 1521 1518 1516 1516 1516 1517 1519 1519 1522 1525 1527 1527 1528 1528 1529 1530 1530 1531 1531 1532 1532 1532 1532 1532 1532 1533 1533 1533 1534 1534 1534 1535 1535 1536 1536 1537 1538 1538 1539 1540 1541 1541 1542 1543
1512 1514 1529 1532 1525 1520 1517 1516 1516 1517 1518 1519 1520 1522 1525 1526 1527 1527 1528 1528 1529 1530 1530 1530 1531 1531 1531 1531 1531 1531 1531 1532 1532 1532 1533 1533 1533 1534 1535 1535 1536 1537 1537 1538 1539 1540 1541 1542 1543
1512 1519 1526 1526 1524 1520 1517 1515 1516 1516 1517 1519 1519 1522 1524 1525 1526 1527 1527 1528 1528 1529 1529 1529 1529 1529 1529 1529 1530 1530 1530 1530 1530 1531 1531 1532 1532 1533 1533 1534 1535 1536 1536 1537 1538 1539 1540 1541 1542
1511 1517 1522 1524 1522 1519 1515 1515 1515 1516 1517 1518 1519 1520 1522 1524 1525 1526 1526 1527 1527 1527 1528 1528 1528 1528 1528 1528 1528 1528 1528 1528 1529 1529 1530 1530 1531 1531 1532 1533 1533 1534 1535 1536 1536 1537 1538 1540 1541
1511 1521 1524 1520 1518 1515 1514 1514 1515 1516 1516 1517 1518 1518 1520 1522 1523 1524 1525 1526 1526 1526 1526 1526 1526 1526 1526 1526 1527 1527 1527 1527 1527 1527 1528 1528 1529 1530 1530 1531 1532 1533 1533 1534 1535 1536 1537 1539 1540
1511 1521 1517 1513 1512 1512 1512 1513 1514 1515 1515 1516 1517 1517 1518 1520 1521 1522 1523 1523 1524 1524 1524 1524 1524 1524 1524 1524 1524 1525 1525 1525 1525 1526 1526 1526 1527 1528 1529 1529 1530 1531 1532 1533 1533 1535 1536 1537 1539
1511 1515 1512 1511 1510 1511 1512 1513 1513 1514 1515 1513 1514 1515 1516 1518 1519 1520 1520 1521 1521 1522 1522 1522 1522 1522 1522 1522 1522 1523 1523 1523 1524 1524 1524 1525 1525 1526 1527 1527 1528 1529 1530 1531 1532 1533 1534 1535 1537
1511 1511 1510 1510 1510 1511 1511 1512 1513 1511 1511 1511 1512 1513 1514 1515 1516 1517 1518 1519 1520 1520 1520 1520 1520 1520 1520 1520 1520 1520 1521 1521 1521 1522 1522 1523 1523 1524 1524 1525 1526 1527 1528 1529 1530 1531 1532 1534 1535
1511 1511 1510 1510 1510 1511 1511 1511 1511 1509 1509 1510 1511 1511 1512 1513 1514 1515 1516 1517 1517 1517 1518 1518 1518 1518 1518 1518 1518 1518 1518 1519 1519 1520 1520 1521 1521 1521 1522 1523 1524 1525 1526 1527 1528 1529 1530 1532 1533
1511 1511 1511 1510 1510 1510 1510 1510 1510 1505 1507 1507 1508 1509 1509 1510 1511 1512 1513 1514 1514 1515 1515 1515 1515 1515 1515 1515 1516 1516 1516 1517 1517 1518 1518 1519 1519 1519 1520 1520 1522 1522 1523 1524 1525 1527 1528 1529 1531
1511 1512 1511 1509 1508 1509 1510 1510 1505 1501 1504 1504 1505 1506 1507 1507 1508 1509 1510 1511 1511 1512 1512 1513 1513 1513 1513 1513 1514 1514 1514 1514 1515 1515 1516 1517 1517 1517 1517 1518 1519 1520 1521 1522 1523 1524 1526 1527 1529
1512 1515 1516 1509 1507 1508 1513 1510 1500 1499 1501 1501 1501 1502 1503 1504 1505 1506 1507 1508 1509 1509 1510 1510 1511 1511 1511 1511 1511 1511 1512 1512 1513 1513 1513 1514 1515 1515 1515 1516 1517 1518 1518 1520 1521 1522 1524 1525 1526
1516 1519 1516 1510 1506 1507 1510 1506 1498 1497 1497 1497 1497 1498 1499 1500 1501 1503 1504 1505 1506 1506 1507 1507 1508 1508 1508 1509 1509 1509 1510 1510 1510 1510 1511 1511 1511 1512 1512 1513 1514 1515 1516 1517 1518 1520 1521 1523 1524
1519 1519 1514 1511 1506 1507 1507 1502 1496 1495 1495 1494 1494 1494 1495 1496 1497 1499 1500 1501 1503 1503 1504 1505 1505 1506 1506 1506 1507 1507 1507 1507 1508 1508 1508 1508 1509 1509 1510 1510 1511 1512 1513 1514 1515 1517 1519 1520 1522
1511 1512 1511 1507 1503 1505 1504 1499 1493 1491 1492 1491 1490 1490 1491 1492 1494 1495 1497 1498 1499 1500 1501 1502 1502 1503 1503 1503 1503 1504 1504 1505 1505 1506 1506 1506 1506 1506 1507 1508 1509 1509 1510 1511 1513 1514 1516 1517 1519
1509 1511 1510 1506 1503 1503 1502 1496 1489 1487 1486 1485 1485 1485 1486 1488 1490 1491 1493 1494 1496 1497 1498 1499 1500 1500 1500 1501 1501 1502 1502 1503 1503 1503 1504 1504 1504 1504 1505 1505 1506 1507 1508 1509 1510 1512 1513 1514 1517
1508 1509 1508 1507 1504 1502 1502 1496 1488 1483 1481 1481 1481 1481 1482 1484 1485 1487 1489 1491 1492 1493 1495 1496 1497 1497 1498 1499 1499 1500 1500 1500 1501 1501 1501 1501 1502 1502 1503 1503 1504 1504 1506 1507 1508 1509 1511 1512 1515
1508 1504 1504 1505 1509 1512 1506 1508 1488 1484 1481 1478 1477 1478 1478 1480 1482 1484 1486 1487 1489 1490 1492 1493 1494 1495 1495 1496 1497 1497 1497 1497 1497 1498 1498 1499 1499 1500 1501 1501 1501 1502 1503 1504 1505 1507 1508 1510 1511
1504 1502 1503 1504 1507 1511 1508 1509 1493 1484 1481 1476 1474 1474 1475 1477 1479 1481 1483 1485 1486 1488 1489 1490 1491 1492 1493 1493 1494 1495 1495 1495 1496 1496 1496 1496 1497 1498 1498 1499 1499 1500 1501 1502 1503 1504 1505 1507 1508
1502 1504 1504 1507 1510 1512 1505 1508 1496 1486 1477 1472 1471 1471 1473 1475 1477 1479 1481 1483 1484 1485 1486 1487 1488 1489 1490 1490 1491 1492 1492 1493 1493 1493 1493 1494 1494 1495 1496 1496 1497 1497 1498 1499 1500 1501 1503 1504 1506
1503 1510 1515 1514 1514 1507 1499 1501 1492 1475 1471 1469 1469 1469 1471 1473 1475 1477 1479 1480 1481 1482 1483 1484 1485 1486 1487 1487 1488 1489 1490 1490 1490 1490 1491 1491 1492 1492 1493 1494 1494 1495 1495 1496 1497 1498 1499 1501 1502
1504 1506 1513 1514 1512 1506 1497 1497 1484 1472 1469 1467 1468 1469 1471 1472 1474 1475 1476 1478 1478 1479 1480 1481 1482 1483 1484 1484 1485 1486 1486 1487 1488 1488 1488 1489 1489 1490 1491 1491 1492 1492 1493 1493 1494 1495 1496 1498 1499
1503 1505 1503 1509 1507 1506 1498 1490 1479 1472 1470 1468 1468 1469 1470 1471 1473 1474 1474 1475 1476 1476 1477 1478 1479 1480 1480 1481 1482 1482 1483 1484 1484 1485 1485 1486 1486 1487 1488 1488 1489 1489 1489 1490 1491 1492 1493 1494 1496
1502 1502 1507 1508 1505 1501 1493 1491 1485 1477 1473 1471 1470 1470 1471 1471 1471 1472 1472 1473 1473 1474 1475 1476 1476 1477 1477 1478 1479 1479 1480 1481 1481 1481 1482 1482 1483 1484 1484 1485 1485 1486 1486 1487 1488 1489 1490 1491 1492
1504 1504 1504 1506 1505 1500 1497 1491 1478 1476 1473 1472 1471 1470 1470 1470 1470 1470 1470 1471 1471 1472 1472 1473 1473 1474 1474 1475 1476 1476 1477 1477 1477 1478 1478 1479 1479 1480 1481 1482 1482 1482 1483 1484 1484 1485 1487 1488 1489
1501 1502 1505 1508 1505 1503 1498 1491 1474 1473 1471 1470 1470 1470 1469 1469 1469 1469 1469 1469 1469 1469 1469 1470 1470 1471 1471 1472 1472 1473 1473 1473 1474 1474 1475 1475 1476 1477 1478 1478 1479 1479 1480 1480 1481 1482 1483 1484 1485